SCP
-0 -0 -0 -0 0 0 -0 -0 -0 -0 -0 -0 -0 -0 -0 -0 -0 0 0 0 0 0 -0 0 0 0 0 0 0 0 0 0 -0 0 0 0 0 0 0 0 0 0 0 1 0
-0 -0 -0 -0 0 0 -0 -0 -0 -0 -0 -0 -0 -0 -0 -0 0 0 0 0 0 0 0 0 0 0 0 0 0 0 0 0 0 0 0 0 0 0 0 0 0 0 1 1 0
-0 -0 -0 -0 0 0 -0 -0 -0 -0 -0 -0 0 0 0 0 0 0 0 0 0 0 0 0 0 0 0 0 0 0 0 0 0 0 0 0 0 0 0 0 0 0 0 1 1
-0 -0 -0 0 -0 -0 -0 -0 -0 0 0 0 0 0 0 0 0 0 0 0 0 0 0 0 0 0 0 0 0 0 -0 0 0 0 0 -0 0 0 0 0 0 0 0 0 2
-0 -0 -0 0 -0 -0 -0 0 0 0 0 0 0 0 0 0 0 0 0 0 0 0 0 0 0 0 0 0 0 0 0 -0 0 0 0 0 -0 0 0 0 0 0 0 1 0
-0 -0 -0 -0 -0 -0 -0 0 0 0 0 0 0 0 0 0 0 0 0 0 0 0 0 0 0 0 0 0 0 0 -0 -0 -0 0 0 0 -0 -0 0 0 0 0 0 0 0
-0 -0 -0 -0 -0 -0 -0 -0 0 0 0 0 0 0 0 0 0 0 0 0 0 0 0 0 0 0 0 0 0 0 0 -0 0 0 0 -0 -0 -0 0 0 0 0 0 0 0
-0 -0 -0 -0 -0 -0 -0 -0 0 0 0 0 0 0 0 0 0 0 0 0 0 0 0 0 0 0 0 0 -0 0 0 -0 0 0 0 0 -0 -0 0 0 0 -0 0 0 0
-0 -0 -0 -0 0 -0 -0 -0 0 0 0 0 0 0 0 0 0 0 0 0 0 0 0 0 0 0 0 0 0 0 0 -0 0 0 -0 0 -0 -0 -0 0 0 0 0 0 0
0 0 0 0 0 0 -0 -0 0 0 0 0 0 0 0 0 0 0 0 0 0 0 0 0 0 0 0 0 0 0 0 -0 -0 0 0 0 -0 0 0 0 0 0 0 0 0
0 0 0 0 0 0 0 0 0 0 0 0 0 0 0 0 0 0 0 0 0 0 0 0 0 0 0 0 0 0 0 0 -0 0 -0 0 -0 0 0 0 0 0 0 -0 0
0 0 0 0 0 0 0 0 0 0 0 0 0 0 0 0 0 0 0 0 0 0 0 0 0 0 0 0 0 0 0 -0 -0 -0 0 -0 -0 0 0 0 0 0 0 0 0
0 0 0 0 0 0 0 0 0 0 0 0 0 0 0 0 0 0 0 0 0 0 0 0 0 0 0 0 0 0 0 0 0 -0 -0 -0 0 0 0 0 0 0 0 0 0
0 0 0 0 0 0 0 0 0 0 0 0 0 0 0 0 0 0 0 0 0 0 0 0 0 0 0 0 0 0 0 0 0 -0 -0 0 0 0 0 0 0 0 0 0 0
0 0 0 0 0 0 0 0 0 0 0 0 0 0 0 0 0 0 0 0 0 0 0 0 0 0 0 0 0 0 0 0 0 0 -0 -0 0 0 -0 0 0 0 0 0 0
0 0 0 0 0 0 0 0 0 0 0 0 0 0 0 0 0 0 0 0 0 0 0 0 0 0 0 0 0 0 0 0 0 0 0 0 0 0 0 -0 0 0 0 0 0
0 0 0 0 0 0 0 0 0 0 0 0 0 0 0 0 0 0 0 0 0 0 0 0 0 0 0 0 0 0 0 0 0 0 0 0 0 0 0 0 0 -0 -0 0 0
0 0 0 0 0 0 0 0 0 0 0 0 0 0 0 0 0 0 0 0 0 0 0 0 0 0 0 0 0 0 0 0 0 0 0 0 0 -0 -0 0 0 -0 -0 0 0
0 0 0 0 0 0 0 0 0 0 0 0 0 0 0 0 0 0 0 0 0 0 0 0 0 0 0 0 0 0 0 0 0 0 0 0 0 0 0 0 0 0 0 0 0
0 0 0 0 0 0 0 0 0 0 0 0 0 0 0 0 0 0 0 0 0 0 0 0 0 0 0 0 0 0 0 0 0 0 0 0 0 0 -0 -0 0 0 0 0 0
0 0 0 0 0 0 0 0 0 0 0 0 0 0 0 0 0 0 0 0 0 0 0 0 0 0 0 0 0 0 0 0 0 0 0 0 0 0 0 -0 0 0 0 0 0
0 0 0 0 0 0 0 0 0 0 0 0 0 0 0 0 0 0 0 0 0 0 0 0 0 0 0 0 0 0 0 0 0 0 0 0 -0 0 0 -0 -0 -0 0 0 0
0 0 0 0 0 0 0 0 0 0 0 0 0 0 0 0 0 0 0 0 0 0 0 0 0 0 0 0 0 0 0 0 0 0 0 0 0 0 0 0 0 0 0 0 0
0 0 0 0 0 0 0 0 0 0 0 0 0 0 0 0 0 0 0 0 0 0 0 0 0 0 0 0 0 0 0 0 0 0 0 0 -0 -0 0 0 -0 -0 0 0 0
0 0 0 0 0 0 0 0 0 0 0 0 0 0 0 0 0 0 0 0 0 0 0 0 0 0 0 0 0 0 0 0 0 0 0 -0 0 -0 0 0 0 -0 -0 -0 0
0 0 0 0 0 0 0 0 0 0 0 0 0 0 0 0 0 0 0 0 0 0 0 0 0 0 0 0 0 0 0 0 0 0 0 0 -0 0 0 0 0 0 0 0 0
0 0 0 0 0 0 0 0 0 0 0 0 0 0 0 0 0 0 0 0 0 0 0 0 0 0 0 0 0 0 0 0 0 0 0 0 -0 0 0 0 0 0 0 0 0
Wind_Speed_500mb
9 9 9 8 10 12 16 21 27 29 27 28 31 36 31 23 13 11 12 26 40 25 11 10 3 2 5 12 17 17 4 3 7 7 12 26 17 22 11 11 22 38 17 31 79
11 11 11 11 13 15 16 18 22 26 28 26 26 30 32 30 16 8 15 26 33 22 15 13 5 8 6 7 7 8 5 11 13 10 11 17 21 34 14 2 8 21 19 44 87
17 16 15 16 18 19 20 20 22 25 28 27 26 28 30 30 15 9 24 27 24 13 11 13 8 8 4 7 7 6 10 10 32 34 42 18 32 21 21 7 19 30 19 27 69
21 20 21 21 22 23 25 24 25 25 28 26 25 27 29 23 5 29 33 13 12 5 7 12 8 8 5 4 7 8 16 20 28 36 28 10 28 17 15 24 31 39 46 21 83
25 21 19 21 24 27 28 28 28 27 27 26 26 27 29 18 11 35 17 11 10 4 6 10 10 9 8 9 13 8 9 22 26 42 32 22 18 10 38 22 20 48 33 45 53
30 26 22 20 22 24 28 30 31 30 27 25 25 25 24 9 16 29 15 9 7 4 1 4 8 17 19 11 5 9 22 34 34 34 31 13 12 2 21 3 14 43 47 66 54
30 30 27 23 24 24 25 28 30 30 28 25 24 23 26 16 15 21 11 7 5 6 6 9 12 11 14 12 16 15 13 16 19 21 9 14 19 16 42 23 22 38 59 62 79
31 32 32 29 24 25 29 30 29 29 27 26 24 22 15 15 14 15 13 7 7 7 8 8 7 14 7 18 15 9 4 9 11 9 12 13 19 7 19 24 20 34 48 54 71
35 36 37 37 32 30 30 31 29 27 24 25 21 13 15 10 14 12 9 6 5 5 6 7 9 6 6 3 9 7 8 9 17 6 7 7 14 10 14 8 24 33 35 57 63
34 35 36 37 34 30 28 29 24 20 19 22 19 11 18 10 10 12 5 4 2 4 5 5 5 2 5 7 6 7 9 9 10 13 17 15 21 20 29 21 25 16 40 41 53
35 36 37 37 36 32 27 22 13 5 11 20 9 15 10 17 12 10 3 2 4 5 4 7 1 10 12 12 15 9 9 15 12 21 8 17 24 21 17 15 26 26 33 56 70
37 37 37 38 35 22 28 13 13 19 25 31 45 45 27 19 12 15 14 8 8 7 4 4 12 18 12 12 8 8 11 17 21 14 10 16 37 24 10 12 27 42 37 51 62
39 40 39 37 29 23 22 18 18 18 12 16 11 15 25 26 16 16 23 9 10 7 10 12 10 6 8 8 9 10 9 11 14 19 9 11 17 13 5 14 33 44 46 50 65
38 38 40 36 15 25 14 18 15 14 9 11 7 7 16 14 9 18 26 12 5 11 8 12 10 12 9 10 9 12 13 16 12 12 5 11 14 11 12 15 15 48 55 53 68
43 38 36 34 30 22 14 13 8 8 9 6 6 10 11 11 2 10 23 14 10 7 9 14 7 10 11 12 11 14 4 9 3 7 7 4 2 11 1 12 16 20 56 63 60
48 44 40 34 33 23 13 6 2 11 13 4 6 8 5 9 5 10 10 12 4 5 8 17 5 10 14 7 7 4 5 6 6 6 5 17 14 9 7 9 6 11 53 68 67
56 52 39 40 31 22 12 5 8 10 3 11 13 10 8 10 8 13 10 9 11 3 6 6 11 5 8 4 3 4 7 7 7 5 11 4 2 21 20 25 16 15 39 66 75
53 48 45 39 31 26 16 6 10 13 14 2 9 11 15 15 13 14 8 8 15 6 4 6 12 18 13 13 13 10 11 9 10 6 8 6 13 12 21 34 29 28 28 49 75
49 48 47 37 25 25 23 5 17 17 14 14 4 8 9 10 11 11 16 12 16 27 20 11 12 4 9 9 15 8 8 9 2 2 6 8 14 17 20 9 11 16 10 26 56
43 45 34 16 8 28 6 22 15 12 6 8 22 20 17 11 14 15 17 10 11 31 10 10 4 5 6 4 6 10 8 4 3 6 10 10 10 14 16 16 13 17 17 19 26
28 18 8 8 11 18 8 14 11 24 24 16 15 14 17 15 17 13 16 9 14 12 29 11 9 4 8 15 19 7 7 6 6 8 7 7 11 13 15 8 13 15 19 23 14
14 5 4 4 7 10 7 9 14 16 25 13 8 16 13 15 15 16 23 18 33 26 20 16 9 9 21 8 16 10 18 16 8 10 8 7 15 15 11 14 15 16 11 25 17
28 21 26 30 10 12 20 33 42 35 33 12 14 10 9 15 18 17 17 21 30 21 23 18 8 1 13 6 4 12 12 13 8 4 12 6 13 4 7 10 18 20 15 36 20
14 8 8 23 37 11 15 22 26 34 38 45 41 36 13 18 16 14 8 9 27 29 37 36 13 16 18 9 10 11 15 31 19 7 12 36 40 36 31 20 31 39 42 49 28
5 8 13 9 14 31 25 17 31 21 19 42 27 27 33 34 41 37 22 7 10 16 13 16 16 13 18 8 6 9 10 23 29 43 16 41 32 46 35 27 37 57 53 36 40
13 11 13 27 26 18 17 17 37 34 26 33 31 42 37 41 29 37 31 15 16 9 15 7 10 14 10 15 17 26 20 23 33 37 39 53 57 33 50 32 30 47 44 51 45
23 38 24 13 9 7 11 23 37 45 40 42 40 43 51 49 55 66 65 57 33 26 22 18 12 9 19 11 5 16 27 40 31 32 36 38 55 14 17 9 27 44 38 34 23
Wind_Direction_500mb
6 12 8 346 335 343 359 15 12 11 4 4 4 5 6 354 345 325 342 349 345 344 347 332 339 29 326 282 248 227 246 193 245 273 284 334 358 340 316 175 186 192 166 172 164
353 353 338 316 306 310 329 347 353 357 357 358 355 356 357 356 338 339 335 341 346 345 353 331 352 34 296 266 256 194 203 231 223 256 276 315 339 334 332 31 206 196 187 159 169
348 338 323 312 296 298 308 319 332 342 342 345 347 347 342 337 329 318 326 324 333 341 10 341 337 332 276 278 249 248 211 229 274 271 279 288 314 345 312 282 211 201 233 208 176
352 335 319 308 302 297 298 306 315 326 335 330 334 337 340 344 359 339 336 333 324 313 24 1 328 302 264 278 275 280 274 263 273 288 292 255 285 325 302 286 281 218 220 154 185
3 341 325 313 302 297 298 298 301 310 318 325 325 327 336 323 304 341 334 341 321 246 19 345 342 334 284 291 301 213 269 294 282 299 289 302 269 272 295 309 236 213 210 175 194
10 359 339 320 315 307 298 293 291 294 301 313 315 319 322 294 322 346 338 327 338 307 341 338 327 314 286 282 295 289 289 287 296 283 283 271 276 1 267 285 203 175 181 182 216
6 3 355 336 319 317 310 298 289 285 286 293 301 306 301 276 315 341 332 303 328 342 274 290 315 325 313 301 315 289 310 316 273 267 276 287 277 209 260 267 211 199 202 194 210
357 356 354 345 326 315 316 308 295 284 277 280 289 292 263 270 290 327 347 297 286 309 320 317 311 302 249 306 311 311 347 334 295 323 271 150 273 241 214 282 246 192 204 207 199
355 352 350 348 339 327 323 315 302 289 270 270 280 258 268 236 262 310 341 291 282 279 292 321 298 263 303 317 323 340 269 273 316 344 288 188 259 232 206 313 270 213 180 203 202
353 349 346 345 341 334 330 326 308 289 264 263 238 265 235 243 249 294 323 13 254 305 297 245 236 315 6 81 241 305 312 300 271 301 342 278 268 264 263 278 278 259 190 167 202
347 347 344 343 342 337 341 344 331 294 252 230 241 238 296 251 265 273 251 220 273 285 217 221 87 244 242 229 240 285 278 276 278 279 293 283 282 281 260 244 244 238 206 194 194
340 341 342 341 341 347 349 12 339 305 301 274 256 248 253 257 263 236 210 203 181 247 249 311 236 240 247 253 241 256 287 288 287 276 328 300 290 274 241 200 237 242 207 213 203
333 334 336 341 335 340 347 350 334 327 287 293 250 240 222 228 237 242 198 206 215 233 233 211 234 175 212 267 279 257 228 269 264 311 275 308 281 262 277 218 231 238 227 211 199
322 327 330 336 326 331 326 330 329 328 37 270 241 229 185 192 251 215 198 206 244 236 236 246 258 203 219 248 220 275 236 237 296 1 281 52 297 230 254 261 223 224 222 215 211
315 318 321 324 314 312 310 313 323 338 358 208 187 172 188 192 105 196 190 196 213 212 107 251 197 205 230 231 178 234 268 244 222 296 338 295 327 272 39 275 262 229 224 218 216
313 315 317 317 310 300 284 272 249 47 255 271 147 174 143 229 236 165 196 219 240 266 229 234 240 192 210 224 224 314 301 347 56 121 289 224 184 287 240 196 260 228 224 220 212
312 312 317 309 304 294 276 232 32 153 278 221 206 169 199 217 223 181 177 189 193 95 270 300 210 193 170 191 234 110 59 326 343 211 233 306 191 250 275 262 225 233 224 223 219
305 308 306 300 296 264 227 53 202 226 227 46 160 150 191 168 236 184 182 244 228 156 100 192 310 168 185 188 185 172 162 164 238 238 262 190 237 250 231 258 276 257 251 235 227
316 311 309 303 266 226 189 177 210 198 209 177 102 184 240 239 198 148 211 215 214 174 183 170 273 183 175 160 148 199 188 190 273 313 271 233 286 294 269 284 329 274 268 225 232
334 327 320 324 223 195 166 237 230 209 188 147 202 186 205 215 181 182 193 208 228 187 175 209 279 202 161 134 220 165 164 121 79 265 271 280 262 234 291 318 334 328 313 291 247
336 328 303 324 184 184 215 236 300 272 260 196 232 247 224 198 202 207 223 248 210 194 181 152 149 276 135 206 179 155 200 198 171 181 216 303 262 216 225 246 311 294 308 336 297
342 297 256 188 193 231 227 231 302 318 315 284 260 214 222 219 226 227 216 219 194 145 173 199 162 200 214 226 196 187 190 165 156 222 223 155 270 259 253 288 279 268 302 3 350
324 271 258 256 249 240 273 275 284 283 282 283 278 232 208 236 240 206 223 227 190 163 173 177 216 326 322 356 155 207 194 196 126 80 204 185 258 303 314 352 306 313 310 330 319
319 311 281 232 245 288 307 276 267 278 266 260 267 273 270 258 222 254 238 245 209 209 194 164 179 184 200 200 144 193 196 202 181 173 223 232 265 264 275 292 291 284 285 300 302
318 292 16 326 330 319 316 297 301 307 314 325 280 258 252 260 262 261 272 279 251 229 185 171 211 205 238 215 202 208 187 192 206 226 199 262 236 255 265 258 256 269 285 269 288
316 344 308 297 292 294 301 307 297 304 313 301 293 306 294 275 268 267 262 214 216 197 183 199 235 173 266 248 218 246 227 224 216 230 236 251 266 273 270 260 262 263 256 269 279
298 298 285 264 260 272 268 287 295 303 298 286 296 303 284 276 283 296 270 259 250 220 201 172 165 149 251 214 276 267 211 235 232 228 229 241 249 237 267 250 251 271 268 257 251
Wind_Speed_850mb
9 9 9 8 10 12 16 21 27 29 27 28 31 36 31 23 13 11 12 26 40 25 11 10 3 2 5 12 17 17 4 3 7 7 12 26 17 22 11 11 22 38 17 31 79
11 11 11 11 13 15 16 18 22 26 28 26 26 30 32 30 16 8 15 26 33 22 15 13 5 8 6 7 7 8 5 11 13 10 11 17 21 34 14 2 8 21 19 44 87
17 16 15 16 18 19 20 20 22 25 28 27 26 28 30 30 15 9 24 27 24 13 11 13 8 8 4 7 7 6 10 10 32 34 42 18 32 21 21 7 19 30 19 27 69
21 20 21 21 22 23 25 24 25 25 28 26 25 27 29 23 5 29 33 13 12 5 7 12 8 8 5 4 7 8 16 20 28 36 28 10 28 17 15 24 31 39 46 21 83
25 21 19 21 24 27 28 28 28 27 27 26 26 27 29 18 11 35 17 11 10 4 6 10 10 9 8 9 13 8 9 22 26 42 32 22 18 10 38 22 20 48 33 45 53
30 26 22 20 22 24 28 30 31 30 27 25 25 25 24 9 16 29 15 9 7 4 1 4 8 17 19 11 5 9 22 34 34 34 31 13 12 2 21 3 14 43 47 66 54
30 30 27 23 24 24 25 28 30 30 28 25 24 23 26 16 15 21 11 7 5 6 6 9 12 11 14 12 16 15 13 16 19 21 9 14 19 16 42 23 22 38 59 62 79
31 32 32 29 24 25 29 30 29 29 27 26 24 22 15 15 14 15 13 7 7 7 8 8 7 14 7 18 15 9 4 9 11 9 12 13 19 7 19 24 20 34 48 54 71
35 36 37 37 32 30 30 31 29 27 24 25 21 13 15 10 14 12 9 6 5 5 6 7 9 6 6 3 9 7 8 9 17 6 7 7 14 10 14 8 24 33 35 57 63
34 35 36 37 34 30 28 29 24 20 19 22 19 11 18 10 10 12 5 4 2 4 5 5 5 2 5 7 6 7 9 9 10 13 17 15 21 20 29 21 25 16 40 41 53
35 36 37 37 36 32 27 22 13 5 11 20 9 15 10 17 12 10 3 2 4 5 4 7 1 10 12 12 15 9 9 15 12 21 8 17 24 21 17 15 26 26 33 56 70
37 37 37 38 35 22 28 13 13 19 25 31 45 45 27 19 12 15 14 8 8 7 4 4 12 18 12 12 8 8 11 17 21 14 10 16 37 24 10 12 27 42 37 51 62
39 40 39 37 29 23 22 18 18 18 12 16 11 15 25 26 16 16 23 9 10 7 10 12 10 6 8 8 9 10 9 11 14 19 9 11 17 13 5 14 33 44 46 50 65
38 38 40 36 15 25 14 18 15 14 9 11 7 7 16 14 9 18 26 12 5 11 8 12 10 12 9 10 9 12 13 16 12 12 5 11 14 11 12 15 15 48 55 53 68
43 38 36 34 30 22 14 13 8 8 9 6 6 10 11 11 2 10 23 14 10 7 9 14 7 10 11 12 11 14 4 9 3 7 7 4 2 11 1 12 16 20 56 63 60
48 44 40 34 33 23 13 6 2 11 13 4 6 8 5 9 5 10 10 12 4 5 8 17 5 10 14 7 7 4 5 6 6 6 5 17 14 9 7 9 6 11 53 68 67
56 52 39 40 31 22 12 5 8 10 3 11 13 10 8 10 8 13 10 9 11 3 6 6 11 5 8 4 3 4 7 7 7 5 11 4 2 21 20 25 16 15 39 66 75
53 48 45 39 31 26 16 6 10 13 14 2 9 11 15 15 13 14 8 8 15 6 4 6 12 18 13 13 13 10 11 9 10 6 8 6 13 12 21 34 29 28 28 49 75
49 48 47 37 25 25 23 5 17 17 14 14 4 8 9 10 11 11 16 12 16 27 20 11 12 4 9 9 15 8 8 9 2 2 6 8 14 17 20 9 11 16 10 26 56
43 45 34 16 8 28 6 22 15 12 6 8 22 20 17 11 14 15 17 10 11 31 10 10 4 5 6 4 6 10 8 4 3 6 10 10 10 14 16 16 13 17 17 19 26
28 18 8 8 11 18 8 14 11 24 24 16 15 14 17 15 17 13 16 9 14 12 29 11 9 4 8 15 19 7 7 6 6 8 7 7 11 13 15 8 13 15 19 23 14
14 5 4 4 7 10 7 9 14 16 25 13 8 16 13 15 15 16 23 18 33 26 20 16 9 9 21 8 16 10 18 16 8 10 8 7 15 15 11 14 15 16 11 25 17
28 21 26 30 10 12 20 33 42 35 33 12 14 10 9 15 18 17 17 21 30 21 23 18 8 1 13 6 4 12 12 13 8 4 12 6 13 4 7 10 18 20 15 36 20
14 8 8 23 37 11 15 22 26 34 38 45 41 36 13 18 16 14 8 9 27 29 37 36 13 16 18 9 10 11 15 31 19 7 12 36 40 36 31 20 31 39 42 49 28
5 8 13 9 14 31 25 17 31 21 19 42 27 27 33 34 41 37 22 7 10 16 13 16 16 13 18 8 6 9 10 23 29 43 16 41 32 46 35 27 37 57 53 36 40
13 11 13 27 26 18 17 17 37 34 26 33 31 42 37 41 29 37 31 15 16 9 15 7 10 14 10 15 17 26 20 23 33 37 39 53 57 33 50 32 30 47 44 51 45
23 38 24 13 9 7 11 23 37 45 40 42 40 43 51 49 55 66 65 57 33 26 22 18 12 9 19 11 5 16 27 40 31 32 36 38 55 14 17 9 27 44 38 34 23
Wind_Direction_850mb
6 12 8 346 335 343 359 15 12 11 4 4 4 5 6 354 345 325 342 349 345 344 347 332 339 29 326 282 248 227 246 193 245 273 284 334 358 340 316 175 186 192 166 172 164
353 353 338 316 306 310 329 347 353 357 357 358 355 356 357 356 338 339 335 341 346 345 353 331 352 34 296 266 256 194 203 231 223 256 276 315 339 334 332 31 206 196 187 159 169
348 338 323 312 296 298 308 319 332 342 342 345 347 347 342 337 329 318 326 324 333 341 10 341 337 332 276 278 249 248 211 229 274 271 279 288 314 345 312 282 211 201 233 208 176
352 335 319 308 302 297 298 306 315 326 335 330 334 337 340 344 359 339 336 333 324 313 24 1 328 302 264 278 275 280 274 263 273 288 292 255 285 325 302 286 281 218 220 154 185
3 341 325 313 302 297 298 298 301 310 318 325 325 327 336 323 304 341 334 341 321 246 19 345 342 334 284 291 301 213 269 294 282 299 289 302 269 272 295 309 236 213 210 175 194
10 359 339 320 315 307 298 293 291 294 301 313 315 319 322 294 322 346 338 327 338 307 341 338 327 314 286 282 295 289 289 287 296 283 283 271 276 1 267 285 203 175 181 182 216
6 3 355 336 319 317 310 298 289 285 286 293 301 306 301 276 315 341 332 303 328 342 274 290 315 325 313 301 315 289 310 316 273 267 276 287 277 209 260 267 211 199 202 194 210
357 356 354 345 326 315 316 308 295 284 277 280 289 292 263 270 290 327 347 297 286 309 320 317 311 302 249 306 311 311 347 334 295 323 271 150 273 241 214 282 246 192 204 207 199
355 352 350 348 339 327 323 315 302 289 270 270 280 258 268 236 262 310 341 291 282 279 292 321 298 263 303 317 323 340 269 273 316 344 288 188 259 232 206 313 270 213 180 203 202
353 349 346 345 341 334 330 326 308 289 264 263 238 265 235 243 249 294 323 13 254 305 297 245 236 315 6 81 241 305 312 300 271 301 342 278 268 264 263 278 278 259 190 167 202
347 347 344 343 342 337 341 344 331 294 252 230 241 238 296 251 265 273 251 220 273 285 217 221 87 244 242 229 240 285 278 276 278 279 293 283 282 281 260 244 244 238 206 194 194
340 341 342 341 341 347 349 12 339 305 301 274 256 248 253 257 263 236 210 203 181 247 249 311 236 240 247 253 241 256 287 288 287 276 328 300 290 274 241 200 237 242 207 213 203
333 334 336 341 335 340 347 350 334 327 287 293 250 240 222 228 237 242 198 206 215 233 233 211 234 175 212 267 279 257 228 269 264 311 275 308 281 262 277 218 231 238 227 211 199
322 327 330 336 326 331 326 330 329 328 37 270 241 229 185 192 251 215 198 206 244 236 236 246 258 203 219 248 220 275 236 237 296 1 281 52 297 230 254 261 223 224 222 215 211
315 318 321 324 314 312 310 313 323 338 358 208 187 172 188 192 105 196 190 196 213 212 107 251 197 205 230 231 178 234 268 244 222 296 338 295 327 272 39 275 262 229 224 218 216
313 315 317 317 310 300 284 272 249 47 255 271 147 174 143 229 236 165 196 219 240 266 229 234 240 192 210 224 224 314 301 347 56 121 289 224 184 287 240 196 260 228 224 220 212
312 312 317 309 304 294 276 232 32 153 278 221 206 169 199 217 223 181 177 189 193 95 270 300 210 193 170 191 234 110 59 326 343 211 233 306 191 250 275 262 225 233 224 223 219
305 308 306 300 296 264 227 53 202 226 227 46 160 150 191 168 236 184 182 244 228 156 100 192 310 168 185 188 185 172 162 164 238 238 262 190 237 250 231 258 276 257 251 235 227
316 311 309 303 266 226 189 177 210 198 209 177 102 184 240 239 198 148 211 215 214 174 183 170 273 183 175 160 148 199 188 190 273 313 271 233 286 294 269 284 329 274 268 225 232
334 327 320 324 223 195 166 237 230 209 188 147 202 186 205 215 181 182 193 208 228 187 175 209 279 202 161 134 220 165 164 121 79 265 271 280 262 234 291 318 334 328 313 291 247
336 328 303 324 184 184 215 236 300 272 260 196 232 247 224 198 202 207 223 248 210 194 181 152 149 276 135 206 179 155 200 198 171 181 216 303 262 216 225 246 311 294 308 336 297
342 297 256 188 193 231 227 231 302 318 315 284 260 214 222 219 226 227 216 219 194 145 173 199 162 200 214 226 196 187 190 165 156 222 223 155 270 259 253 288 279 268 302 3 350
324 271 258 256 249 240 273 275 284 283 282 283 278 232 208 236 240 206 223 227 190 163 173 177 216 326 322 356 155 207 194 196 126 80 204 185 258 303 314 352 306 313 310 330 319
319 311 281 232 245 288 307 276 267 278 266 260 267 273 270 258 222 254 238 245 209 209 194 164 179 184 200 200 144 193 196 202 181 173 223 232 265 264 275 292 291 284 285 300 302
318 292 16 326 330 319 316 297 301 307 314 325 280 258 252 260 262 261 272 279 251 229 185 171 211 205 238 215 202 208 187 192 206 226 199 262 236 255 265 258 256 269 285 269 288
316 344 308 297 292 294 301 307 297 304 313 301 293 306 294 275 268 267 262 214 216 197 183 199 235 173 266 248 218 246 227 224 216 230 236 251 266 273 270 260 262 263 256 269 279
298 298 285 264 260 272 268 287 295 303 298 286 296 303 284 276 283 296 270 259 250 220 201 172 165 149 251 214 276 267 211 235 232 228 229 241 249 237 267 250 251 271 268 257 251